Погода в Черноярской

Россия / Республика Северная Осетия — Алания     43°41′34″N   44°20′48″E
темп.,
°C
ветер,
м/с
пор.,
м/с
влажн.,
%
обл.,
%
осадки,
мм/ч
давл.,
гПа
погр.,
м
8 мая, сб
сб800:00+12зюз227010 0.0 101912
03:00+11юз22785 0.0 101810
06:00+13ююз11795 0.0 101835
09:00+19в355999 0.0 1016602
12:00+23в56445 0.0 10141348
15:00+23в5542100 0.0 10131456
18:00+19в496083 0.0 1012257
21:00+13в37725 0.0 1013115
9 мая, вс
вс900:00+11в22855 0.0 101136
03:00+10всв2291100 0.0 100922
06:00+12з0184100 0.0 100955
09:00+18ссз236567 0.0 1008500
12:00+21ссз655652 0.0 10071364
15:00+14сз101480100 0.1 1011821
18:00+8сз122186100 2.3 1016879
21:00+7зсз101888100 4.3 1020873
10 мая, пн
пн1000:00+8зсз71481100 0.4 1022878
03:00+8зсз61376100 0.4 1022669
06:00+8зюз2877100 0.0 1022690
09:00+13зсз7947100 0.0 10211879
12:00+14зсз674192 0.0 10202145
15:00+15зсз554274 0.0 10192084
18:00+11зсз6865100 0.0 1020573
21:00+8зюз4786100 0.3 1022196
11 мая, вт
вт1100:00+7ююз2292100 1.9 102188
03:00+6юз2288100 1.9 102023
06:00+7зюз1187100 0.0 102078
09:00+10в4670100 0.0 1020836
12:00+13в5657100 0.0 10191586
15:00+16в3449100 0.0 10181712
18:00+15всв12655 0.0 1018202
21:00+10всв227793 0.0 101915
12 мая, ср
ср1200:00+8в338620 0.0 101840
03:00+7в228816 0.0 101818
06:00+8в258580 0.0 1019149
09:00+14в57620 0.0 1017904
12:00+18в555550 0.0 10161459
15:00+20в445148 0.0 10151614
18:00+19в23640 0.0 101581
21:00+13вюв33780 0.0 101624